Weather History for K79J - February, 2014

Change the Weather History Date:

Saturday, February 1, 2014

  Actual Average (KCEW) Record (KCEW)
Temperature  
Mean Temperature 62 °F -  
Max Temperature 75 °F 59 °F 77 °F (1950)
Min Temperature 48 °F 37 °F 17 °F (1951)
Degree Days  
Heating Degree Days 4    
Growing Degree Days 12 (Base 50)    
Moisture  
Dew Point 47 °F    
Average Humidity 71    
Maximum Humidity 94    
Minimum Humidity 43    
Precipitation  
Precipitation 0.00 in - - ()
Sea Level Pressure  
Sea Level Pressure 30.10 in    
Wind  
Wind Speed 2 mph (SE)    
Max Wind Speed 6 mph    
Max Gust Speed -    
Visibility 7 miles    
Events Fog , Rain    
Averages and records for this station are not official NWS values.
T = Trace of Precipitation, MM = Missing Value Source: NWS Daily Summary

Daily Weather History Graph

Daily Weather History Graph

Search for Another Location

Airport or City:

Trip Planner

Search our weather history database for the weather conditions in past years. The results will help you decide how hot, cold, wet, or windy it might be!

Date:

Astronomy

Feb. 01, 2014 Rise Set
Actual Time 6:37 AM CST 5:20 PM CST
Civil Twilight 6:12 AM CST 5:46 PM CST
Nautical Twilight 5:43 AM CST 6:15 PM CST
Astronomical Twilight 5:14 AM CST 6:43 PM CST
Moon 7:38 AM CST (2/1) 7:42 PM CST (2/1)
Length of Visible Light 11h 33m
Length of Day
10h 42m
Waxing Crescent, 5% of the Moon is Illuminated
Feb 1
Waxing Crescent
Feb 6
First Quarter
Feb 14
Full
Feb 22
Last Quarter
Mar 1
New

Hourly Weather History & Observations

Time (CST) Temp. Dew Point Humidity Pressure Visibility Wind Dir Wind Speed Gust Speed Precip Events Conditions
12:54 AM 48.2 °F 37.4 °F 66% 30.11 in 10.0 mi Calm Calm - N/A   Overcast
12:56 AM 48.9 °F 37.0 °F 64% 30.10 in 10.0 mi Calm Calm - N/A   Overcast
1:10 AM 48.2 °F 39.2 °F 71% 30.11 in 10.0 mi Calm Calm - N/A   Overcast
1:56 AM 48.9 °F 37.9 °F 66% 30.09 in 10.0 mi Calm Calm - N/A   Overcast
2:39 AM 48.2 °F 37.4 °F 66% 30.09 in 10.0 mi Calm Calm - N/A   Overcast
2:47 AM 48.2 °F 39.2 °F 71% 30.08 in 10.0 mi ESE 3.5 mph - N/A   Overcast
2:56 AM 48.9 °F 39.0 °F 69% 30.09 in 10.0 mi Calm Calm - N/A   Overcast
3:03 AM 48.2 °F 37.4 °F 66% 30.09 in 10.0 mi Calm Calm - N/A   Overcast
3:20 AM 48.2 °F 37.4 °F 66% 30.09 in 10.0 mi Calm Calm - N/A   Overcast
3:56 AM 48.9 °F 37.9 °F 66% 30.09 in 10.0 mi Calm Calm - N/A   Overcast
4:56 AM 48.9 °F 39.0 °F 69% 30.09 in 10.0 mi SE 3.5 mph - N/A   Overcast
5:25 AM 48.2 °F 39.2 °F 71% 30.10 in 10.0 mi Calm Calm - N/A   Overcast
5:39 AM 50.0 °F 39.2 °F 66% 30.10 in 10.0 mi Calm Calm - N/A   Overcast
5:56 AM 48.9 °F 39.9 °F 71% 30.10 in 10.0 mi Calm Calm - N/A   Overcast
6:31 AM 50.0 °F 41.0 °F 71% 30.11 in 10.0 mi ESE 3.5 mph - N/A   Overcast
6:56 AM 50.0 °F 41.0 °F 71% 30.11 in 10.0 mi Calm Calm - N/A   Overcast
7:56 AM 51.1 °F 42.1 °F 71% 30.12 in 10.0 mi SE 5.8 mph - N/A   Overcast
8:56 AM 54.0 °F 46.0 °F 75% 30.14 in 8.0 mi ESE 3.5 mph - N/A   Overcast
9:17 AM 57.2 °F 48.2 °F 72% 30.14 in 10.0 mi ESE 5.8 mph - N/A   Scattered Clouds
9:56 AM 62.1 °F 50.0 °F 65% 30.13 in 10.0 mi Variable 4.6 mph - N/A   Clear
10:33 AM 64.4 °F 50.0 °F 59% 30.13 in 10.0 mi SSE 4.6 mph - N/A   Mostly Cloudy
10:56 AM 64.9 °F 51.1 °F 61% 30.13 in 10.0 mi SSE 4.6 mph - N/A   Overcast
11:41 AM 66.2 °F 51.8 °F 60% 30.11 in 10.0 mi Variable 3.5 mph - N/A   Scattered Clouds
11:51 AM 69.8 °F 51.8 °F 53% 30.11 in 10.0 mi ENE 4.6 mph - N/A   Mostly Cloudy
11:56 AM 71.1 °F 52.0 °F 51% 30.10 in 10.0 mi Variable 4.6 mph - N/A   Mostly Cloudy
12:04 PM 66.2 °F 51.8 °F 60% 30.10 in 10.0 mi South 3.5 mph - N/A   Scattered Clouds
12:17 PM 71.6 °F 51.8 °F 50% 30.09 in 10.0 mi Variable 5.8 mph - N/A   Mostly Cloudy
12:28 PM 71.6 °F 51.8 °F 50% 30.08 in 10.0 mi Calm Calm - N/A   Scattered Clouds
12:56 PM 71.1 °F 52.0 °F 51% 30.06 in 10.0 mi Variable 4.6 mph - N/A   Mostly Cloudy
1:56 PM 73.0 °F 51.1 °F 46% 30.04 in 10.0 mi Variable 4.6 mph - N/A   Mostly Cloudy
2:56 PM 75.0 °F 51.1 °F 43% 30.04 in 10.0 mi Calm Calm - N/A   Scattered Clouds
3:56 PM 75.0 °F 51.1 °F 43% 30.05 in 10.0 mi Variable 4.6 mph - N/A   Partly Cloudy
4:56 PM 71.1 °F 52.0 °F 51% 30.06 in 10.0 mi Calm Calm - N/A   Mostly Cloudy
5:56 PM 68.0 °F 53.1 °F 59% 30.07 in 10.0 mi Calm Calm - N/A   Mostly Cloudy
6:56 PM 64.0 °F 54.0 °F 70% 30.08 in 10.0 mi Calm Calm - N/A   Scattered Clouds
7:56 PM 59.0 °F 54.0 °F 83% 30.10 in 8.0 mi Calm Calm - N/A   Clear
8:56 PM 57.0 °F 53.1 °F 87% 30.11 in 6.0 mi Calm Calm - N/A   Clear
9:31 PM 55.4 °F 51.8 °F 88% 30.12 in 1.8 mi Calm Calm - N/A   Clear
9:44 PM 55.4 °F 51.8 °F 88% 30.11 in 1.0 mi Calm Calm - N/A   Clear
9:52 PM 55.9 °F 52.0 °F 87% 30.11 in 0.5 mi Calm Calm - N/A Fog Fog
9:59 PM 53.6 °F 50.0 °F 88% 30.11 in 0.2 mi Calm Calm - 0.00 in Fog , Rain Light Rain
10:14 PM 51.8 °F 48.2 °F 88% 30.11 in 0.5 mi Calm Calm - 0.00 in Fog Fog
10:23 PM 51.8 °F 48.2 °F 88% 30.12 in 0.2 mi Calm Calm - 0.00 in Fog Fog
10:56 PM 53.1 °F 50.0 °F 89% 30.12 in 0.5 mi SSE 3.5 mph - 0.00 in Fog , Rain Light Rain
11:06 PM 55.4 °F 51.8 °F 88% 30.12 in 1.5 mi SSE 4.6 mph - 0.00 in Rain Light Rain
11:09 PM 55.4 °F 51.8 °F 88% 30.12 in 2.5 mi SSE 4.6 mph - 0.00 in Rain Light Rain
11:16 PM 53.6 °F 51.8 °F 94% 30.11 in 3.0 mi SSE 5.8 mph - 0.00 in Rain Light Rain
11:25 PM 55.4 °F 51.8 °F 88% 30.11 in 2.5 mi SE 3.5 mph - 0.00 in   Overcast
11:33 PM 53.6 °F 51.8 °F 94% 30.10 in 1.2 mi SE 4.6 mph - 0.00 in   Overcast
11:35 PM 53.6 °F 51.8 °F 94% 30.10 in 0.8 mi SSE 4.6 mph - 0.00 in   Overcast
11:40 PM 55.4 °F 51.8 °F 88% 30.10 in 0.5 mi SE 3.5 mph - 0.00 in Fog Fog
11:56 PM 54.0 °F 51.1 °F 90% 30.09 in 0.2 mi SE 3.5 mph - 0.00 in Fog Fog